Location: Sungai Laei
(2.6000°N, 113.7167°E)
Time: 11:59:46
(UTC+00:00)

CZ-2C R/B - Pass Details

Date: 05 October 2022
Orbit: 703 x 908 km, 98.1° (Epoch: 08 December)

Event Time Altitude Azimuth Distance (km) Brightness Sun altitude
Rises 19:35:24 0° 41° (NE) 3,336 6.7 -39.6°
Reaches altitude 10° 19:38:35 10° 61° (ENE) 2,365 6.0 -38.8°
Maximum altitude 19:41:54 17° 101° (E) 1,874 5.6 -38.0°
Drops below altitude 10° 19:45:07 10° 141° (SE) 2,286 5.9 -37.2°
Sets 19:48:07 0° 160° (SSE) 3,177 6.5 -36.4°
